C/2015 O1 ( PanSTARRS )

Japanese version
Home page
Updated on July 30, 2018

---------------------------------------------------------------------

* Profile

Discovery Date July 19, 2015
Magnitude 19.6 mag
Discoverer Pan-STARRS 1 telescope (Haleakala)

* Pictures

* Orbital Elements

Epoch 2018 Feb. 11.0 TT = JDT 2458160.5
T 2018 Feb. 19.04896 TT                                 MPCW
q   3.7295515            (2000.0)            P               Q
z  -0.0000117      Peri.   89.59814     -0.52098692     -0.50148252
 +/-0.0000004      Node   299.85562     -0.59857450     +0.79153746
e   1.0000435      Incl.  127.21104     +0.60850735     +0.34926169
From 1842 observations 2015 June 15-2018 Mar. 28, mean residual 0".5.

* Finding Charts

* Magnitudes Graph

        m1 = 4.0 + 5 log d + 11.0 log r

---------------------------------------------------------------------

The orbital elements are published on M.P.E.C. 2018-F152.
The charts are made with StellaNavigator Ver.8 (AstroArts).
The magnitudes graphs are made with Comet for Windows.

---------------------------------------------------------------------

Copyright(C) Seiichi Yoshida (comet@aerith.net). All rights reserved.